| time (UTC) | temp C | wind direction | speed KPH | gust KPH | rain 1hr cm | rain 24hr cm | rain mn cm | humidity % | barometer mb |
| 20260506004851 | 23 | 200 | 14.5 | 25.7 | 0.00 | 0.00 | 0.00 | 33 | 1009.1 |
| 20260506004349 | 23 | 195 | 11.3 | 19.3 | 0.00 | 0.00 | 0.00 | 33 | 1008.8 |
| 20260506003845 | 23 | 222 | 16.1 | 20.9 | 0.00 | 0.00 | 0.00 | 32 | 1008.9 |
| 20260506003341 | 23 | 209 | 20.9 | 22.5 | 0.00 | 0.00 | 0.00 | 31 | 1008.8 |
| 20260506002838 | 23 | 208 | 16.1 | 20.9 | 0.00 | 0.00 | 0.00 | 32 | 1008.5 |
| 20260506002334 | 23 | 206 | 8.0 | 22.5 | 0.00 | 0.00 | 0.00 | 31 | 1008.8 |
| 20260506001829 | 23 | 215 | 12.9 | 16.1 | 0.00 | 0.00 | 0.00 | 31 | 1008.5 |
| 20260506001327 | 23 | 207 | 9.7 | 19.3 | 0.00 | 0.00 | 0.00 | 31 | 1008.5 |
| 20260506000824 | 24 | 213 | 11.3 | 20.9 | 0.00 | 0.00 | 0.00 | 31 | 1008.5 |
| 20260506000323 | 24 | 211 | 9.7 | 19.3 | 0.00 | 0.00 | 0.00 | 31 | 1008.5 |
| 20260505235818 | 24 | 207 | 12.9 | 20.9 | 0.00 | 0.00 | 0.00 | 31 | 1008.6 |
| 20260505235316 | 24 | 219 | 16.1 | 22.5 | 0.00 | 0.00 | 0.00 | 30 | 1008.4 |
| 20260505234813 | 25 | 183 | 11.3 | 24.1 | 0.00 | 0.00 | 0.00 | 30 | 1008.4 |
| 20260505234311 | 25 | 216 | 17.7 | 20.9 | 0.00 | 0.00 | 0.00 | 31 | 1008.3 |
| 20260505233807 | 25 | 210 | 16.1 | 24.1 | 0.00 | 0.00 | 0.00 | 30 | 1008.4 |
| 20260505233305 | 25 | 206 | 9.7 | 24.1 | 0.00 | 0.00 | 0.00 | 32 | 1008.3 |
| 20260505232802 | 25 | 219 | 27.4 | 27.4 | 0.00 | 0.00 | 0.00 | 30 | 1008.3 |
| 20260505232259 | 25 | 218 | 17.7 | 27.4 | 0.00 | 0.00 | 0.00 | 31 | 1008.2 |
| 20260505231755 | 25 | 210 | 14.5 | 30.6 | 0.00 | 0.00 | 0.00 | 31 | 1008.3 |
| 20260505231254 | 25 | 212 | 17.7 | 29.0 | 0.00 | 0.00 | 0.00 | 30 | 1008.2 |
| 20260505230752 | 26 | 213 | 20.9 | 24.1 | 0.00 | 0.00 | 0.00 | 30 | 1008.0 |
| 20260505230249 | 26 | 204 | 20.9 | 35.4 | 0.00 | 0.00 | 0.00 | 29 | 1008.4 |
| 20260505225745 | 25 | 204 | 17.7 | 22.5 | 0.00 | 0.00 | 0.00 | 31 | 1008.2 |
| 20260505225243 | 25 | 222 | 11.3 | 19.3 | 0.00 | 0.00 | 0.00 | 32 | 1008.2 |
| 20260505224737 | 26 | 212 | 14.5 | 29.0 | 0.00 | 0.00 | 0.00 | 32 | 1008.2 |
| 20260505224235 | 26 | 216 | 14.5 | 22.5 | 0.00 | 0.00 | 0.00 | 32 | 1008.2 |
| 20260505223733 | 26 | 194 | 9.7 | 25.7 | 0.00 | 0.00 | 0.00 | 30 | 1008.2 |
| 20260505223229 | 26 | 206 | 11.3 | 32.2 | 0.00 | 0.00 | 0.00 | 32 | 1008.5 |
| 20260505222725 | 26 | 188 | 12.9 | 27.4 | 0.00 | 0.00 | 0.00 | 30 | 1008.2 |
| 20260505222221 | 26 | 180 | 12.9 | 27.4 | 0.00 | 0.00 | 0.00 | 29 | 1008.3 |
| 20260505221719 | 26 | 204 | 16.1 | 27.4 | 0.00 | 0.00 | 0.00 | 31 | 1008.3 |
| 20260505221215 | 26 | 190 | 20.9 | 27.4 | 0.00 | 0.00 | 0.00 | 29 | 1008.2 |
| 20260505220712 | 26 | 215 | 22.5 | 33.8 | 0.00 | 0.00 | 0.00 | 29 | 1008.2 |
| 20260505220210 | 26 | 219 | 24.1 | 30.6 | 0.00 | 0.00 | 0.00 | 29 | 1008.4 |
| 20260505215708 | 26 | 217 | 19.3 | 25.7 | 0.00 | 0.00 | 0.00 | 31 | 1008.2 |
| 20260505215205 | 26 | 213 | 19.3 | 25.7 | 0.00 | 0.00 | 0.00 | 30 | 1008.1 |
| 20260505214703 | 26 | 206 | 19.3 | 25.7 | 0.00 | 0.00 | 0.00 | 30 | 1008.3 |
| 20260505214200 | 26 | 221 | 29.0 | 30.6 | 0.00 | 0.00 | 0.00 | 30 | 1008.4 |
| 20260505213657 | 26 | 207 | 14.5 | 22.5 | 0.00 | 0.00 | 0.00 | 31 | 1008.3 |
| 20260505213154 | 26 | 208 | 17.7 | 25.7 | 0.00 | 0.00 | 0.00 | 31 | 1008.3 |
| 20260505212650 | 26 | 209 | 16.1 | 25.7 | 0.00 | 0.00 | 0.00 | 32 | 1008.3 |
| 20260505212148 | 26 | 212 | 14.5 | 40.2 | 0.00 | 0.00 | 0.00 | 32 | 1008.1 |
| 20260505211645 | 26 | 212 | 17.7 | 24.1 | 0.00 | 0.00 | 0.00 | 31 | 1008.1 |
| 20260505211142 | 26 | 209 | 22.5 | 32.2 | 0.00 | 0.00 | 0.00 | 30 | 1008.1 |
| 20260505210638 | 26 | 206 | 25.7 | 29.0 | 0.00 | 0.00 | 0.00 | 31 | 1008.1 |
| 20260505210135 | 26 | 218 | 20.9 | 24.1 | 0.00 | 0.00 | 0.00 | 33 | 1008.2 |
| 20260505205633 | 26 | 209 | 40.2 | 40.2 | 0.00 | 0.00 | 0.00 | 30 | 1008.3 |
| 20260505205131 | 27 | 218 | 24.1 | 30.6 | 0.00 | 0.00 | 0.00 | 33 | 1008.3 |
| 20260505204627 | 27 | 219 | 12.9 | 25.7 | 0.00 | 0.00 | 0.00 | 32 | 1008.2 |
| 20260505204125 | 27 | 212 | 16.1 | 30.6 | 0.00 | 0.00 | 0.00 | 33 | 1008.2 |
| 20260505203621 | 27 | 205 | 24.1 | 27.4 | 0.00 | 0.00 | 0.00 | 32 | 1008.1 |
| 20260505203119 | 27 | 196 | 14.5 | 32.2 | 0.00 | 0.00 | 0.00 | 33 | 1008.1 |
| 20260505202614 | 27 | 193 | 19.3 | 38.6 | 0.00 | 0.00 | 0.00 | 32 | 1007.9 |
| 20260505202111 | 27 | 216 | 19.3 | 32.2 | 0.00 | 0.00 | 0.00 | 33 | 1008.1 |
| 20260505201607 | 27 | 204 | 20.9 | 33.8 | 0.00 | 0.00 | 0.00 | 32 | 1008.0 |
| 20260505201105 | 27 | 211 | 12.9 | 30.6 | 0.00 | 0.00 | 0.00 | 34 | 1008.1 |
| 20260505200603 | 27 | 218 | 22.5 | 35.4 | 0.00 | 0.00 | 0.00 | 32 | 1007.9 |
| 20260505200100 | 27 | 189 | 11.3 | 30.6 | 0.00 | 0.00 | 0.00 | 33 | 1008.1 |
| 20260505195555 | 28 | 217 | 30.6 | 30.6 | 0.00 | 0.00 | 0.00 | 33 | 1008.1 |
| 20260505195053 | 27 | 173 | 19.3 | 35.4 | 0.00 | 0.00 | 0.00 | 33 | 1008.2 |
| 20260505194550 | 27 | 204 | 22.5 | 38.6 | 0.00 | 0.00 | 0.00 | 33 | 1008.0 |
| 20260505194046 | 28 | 208 | 30.6 | 43.5 | 0.00 | 0.00 | 0.00 | 33 | 1008.0 |
| 20260505193543 | 27 | 158 | 16.1 | 25.7 | 0.00 | 0.00 | 0.00 | 34 | 1008.3 |
| 20260505193040 | 27 | 215 | 25.7 | 43.5 | 0.00 | 0.00 | 0.00 | 36 | 1008.2 |
| 20260505192539 | 27 | 205 | 24.1 | 38.6 | 0.00 | 0.00 | 0.00 | 35 | 1008.6 |
| 20260505192036 | 27 | 183 | 8.0 | 30.6 | 0.00 | 0.00 | 0.00 | 36 | 1008.5 |
| 20260505191534 | 27 | 206 | 20.9 | 45.1 | 0.00 | 0.00 | 0.00 | 36 | 1008.3 |
| 20260505191032 | 27 | 207 | 25.7 | 30.6 | 0.00 | 0.00 | 0.00 | 35 | 1008.4 |
| 20260505190532 | 27 | 204 | 11.3 | 33.8 | 0.00 | 0.00 | 0.00 | 36 | 1008.8 |
| 20260505190028 | 27 | 171 | 14.5 | 25.7 | 0.00 | 0.00 | 0.00 | 35 | 1008.8 |
| 20260505185525 | 27 | 209 | 17.7 | 29.0 | 0.00 | 0.00 | 0.00 | 37 | 1008.8 |
| 20260505185021 | 27 | 202 | 17.7 | 29.0 | 0.00 | 0.00 | 0.00 | 36 | 1008.8 |
| 20260505184518 | 27 | 199 | 6.4 | 22.5 | 0.00 | 0.00 | 0.00 | 38 | 1008.9 |
| 20260505184015 | 27 | 212 | 25.7 | 33.8 | 0.00 | 0.00 | 0.00 | 35 | 1009.1 |
| 20260505183512 | 27 | 216 | 12.9 | 20.9 | 0.00 | 0.00 | 0.00 | 40 | 1009.2 |
| 20260505183009 | 27 | 225 | 14.5 | 25.7 | 0.00 | 0.00 | 0.00 | 36 | 1009.2 |
| 20260505182506 | 27 | 196 | 17.7 | 27.4 | 0.00 | 0.00 | 0.00 | 37 | 1009.4 |
| 20260505182002 | 27 | 201 | 17.7 | 32.2 | 0.00 | 0.00 | 0.00 | 38 | 1009.3 |
| 20260505181459 | 27 | 199 | 24.1 | 25.7 | 0.00 | 0.00 | 0.00 | 37 | 1009.3 |
| 20260505180956 | 27 | 216 | 19.3 | 24.1 | 0.00 | 0.00 | 0.00 | 38 | 1009.3 |
| 20260505180452 | 27 | 206 | 22.5 | 25.7 | 0.00 | 0.00 | 0.00 | 36 | 1009.8 |
| 20260505175949 | 27 | 196 | 9.7 | 24.1 | 0.00 | 0.00 | 0.00 | 37 | 1009.6 |
| 20260505175445 | 27 | 234 | 16.1 | 22.5 | 0.00 | 0.00 | 0.00 | 37 | 1009.5 |
| 20260505174942 | 26 | 200 | 14.5 | 25.7 | 0.00 | 0.00 | 0.00 | 37 | 1009.6 |
| 20260505174439 | 26 | 203 | 17.7 | 33.8 | 0.00 | 0.00 | 0.00 | 36 | 1009.8 |
| 20260505173935 | 26 | 210 | 17.7 | 27.4 | 0.00 | 0.00 | 0.00 | 39 | 1009.8 |
| 20260505173432 | 26 | 207 | 24.1 | 27.4 | 0.00 | 0.00 | 0.00 | 36 | 1009.8 |
| 20260505172929 | 26 | 200 | 17.7 | 25.7 | 0.00 | 0.00 | 0.00 | 36 | 1009.9 |
| 20260505172427 | 26 | 201 | 20.9 | 25.7 | 0.00 | 0.00 | 0.00 | 37 | 1010.1 |
| 20260505171926 | 26 | 180 | 9.7 | 24.1 | 0.00 | 0.00 | 0.00 | 37 | 1009.7 |
| 20260505171424 | 26 | 201 | 20.9 | 30.6 | 0.00 | 0.00 | 0.00 | 37 | 1010.1 |
| 20260505170920 | 26 | 222 | 17.7 | 35.4 | 0.00 | 0.00 | 0.00 | 39 | 1010.1 |
| 20260505170417 | 26 | 207 | 17.7 | 27.4 | 0.00 | 0.00 | 0.00 | 39 | 1010.1 |
| 20260505165912 | 26 | 202 | 8.0 | 25.7 | 0.00 | 0.00 | 0.00 | 39 | 1010.3 |
| 20260505165408 | 26 | 212 | 11.3 | 17.7 | 0.00 | 0.00 | 0.00 | 41 | 1010.2 |
| 20260505164903 | 26 | 235 | 22.5 | 30.6 | 0.00 | 0.00 | 0.00 | 38 | 1010.3 |
| 20260505164401 | 26 | 235 | 20.9 | 33.8 | 0.00 | 0.00 | 0.00 | 37 | 1010.4 |
| 20260505163859 | 26 | 236 | 8.0 | 19.3 | 0.00 | 0.00 | 0.00 | 43 | 1010.7 |
| 20260505163358 | 26 | 209 | 9.7 | 22.5 | 0.00 | 0.00 | 0.00 | 39 | 1010.7 |
| 20260505162855 | 26 | 191 | 3.2 | 14.5 | 0.00 | 0.00 | 0.00 | 42 | 1010.4 |
| 20260505162351 | 26 | 211 | 8.0 | 20.9 | 0.00 | 0.00 | 0.00 | 39 | 1010.7 |
| 20260505161848 | 26 | 244 | 11.3 | 22.5 | 0.00 | 0.00 | 0.00 | 41 | 1010.8 |
| 20260505161345 | 25 | 216 | 11.3 | 20.9 | 0.00 | 0.00 | 0.00 | 43 | 1010.6 |
| 20260505160843 | 25 | 196 | 24.1 | 25.7 | 0.00 | 0.00 | 0.00 | 38 | 1011.0 |
| 20260505160341 | 26 | 229 | 11.3 | 19.3 | 0.00 | 0.00 | 0.00 | 39 | 1010.8 |
| 20260505153320 | 25 | 259 | 11.3 | 24.1 | 0.00 | 0.00 | 0.00 | 42 | 1011.1 |
| 20260505152817 | 25 | 217 | 22.5 | 27.4 | 0.00 | 0.00 | 0.00 | 40 | 1011.2 |
| 20260505152314 | 25 | 199 | 11.3 | 24.1 | 0.00 | 0.00 | 0.00 | 41 | 1011.0 |
| 20260505151814 | 25 | 205 | 12.9 | 17.7 | 0.00 | 0.00 | 0.00 | 43 | 1011.4 |
| 20260505151310 | 25 | 206 | 11.3 | 20.9 | 0.00 | 0.00 | 0.00 | 40 | 1011.3 |
| 20260505150808 | 25 | 222 | 16.1 | 17.7 | 0.00 | 0.00 | 0.00 | 44 | 1010.9 |
| 20260505150305 | 25 | 211 | 14.5 | 22.5 | 0.00 | 0.00 | 0.00 | 42 | 1011.0 |
| 20260505140229 | 23 | 220 | 9.7 | 17.7 | 0.00 | 0.00 | 0.00 | 46 | 1010.8 |
| 20260505130153 | 20 | 161 | 9.7 | 11.3 | 0.00 | 0.00 | 0.00 | 57 | 1011.4 |
| 20260505124643 | 19 | 205 | 9.7 | 11.3 | 0.00 | 0.00 | 0.00 | 59 | 1011.4 |
| 20260505124139 | 18 | 220 | 9.7 | 14.5 | 0.00 | 0.00 | 0.00 | 61 | 1011.7 |
| 20260505123635 | 18 | 192 | 6.4 | 8.0 | 0.00 | 0.00 | 0.00 | 63 | 1011.8 |
| 20260505123132 | 18 | 203 | 6.4 | 9.7 | 0.00 | 0.00 | 0.00 | 63 | 1011.8 |
| 20260505122629 | 17 | 228 | 17.7 | 17.7 | 0.00 | 0.00 | 0.00 | 64 | 1011.9 |
| 20260505122126 | 17 | 226 | 9.7 | 24.1 | 0.00 | 0.00 | 0.00 | 63 | 1011.7 |
| 20260505121623 | 17 | 214 | 6.4 | 16.1 | 0.00 | 0.00 | 0.00 | 65 | 1011.8 |
| 20260505121119 | 17 | 203 | 9.7 | 12.9 | 0.00 | 0.00 | 0.00 | 66 | 1011.7 |
| 20260505120615 | 16 | 206 | 9.7 | 14.5 | 0.00 | 0.00 | 0.00 | 67 | 1011.7 |
| 20260505120111 | 16 | 189 | 4.8 | 9.7 | 0.00 | 0.00 | 0.00 | 68 | 1011.8 |
| 20260505115606 | 16 | 216 | 8.0 | 9.7 | 0.00 | 0.00 | 0.00 | 69 | 1011.6 |
| 20260505115104 | 16 | 215 | 8.0 | 12.9 | 0.00 | 0.00 | 0.00 | 68 | 1011.5 |
| 20260505114601 | 15 | 201 | 9.7 | 12.9 | 0.00 | 0.00 | 0.00 | 69 | 1011.4 |
| 20260505114057 | 15 | 204 | 8.0 | 16.1 | 0.00 | 0.00 | 0.00 | 70 | 1011.4 |
| 20260505113553 | 15 | 210 | 4.8 | 9.7 | 0.00 | 0.00 | 0.00 | 72 | 1011.4 |
| 20260505113050 | 15 | 205 | 3.2 | 9.7 | 0.00 | 0.00 | 0.00 | 74 | 1011.3 |
| 20260505112547 | 14 | 188 | 3.2 | 6.4 | 0.00 | 0.00 | 0.00 | 75 | 1011.5 |
| 20260505112045 | 14 | 182 | 4.8 | 4.8 | 0.00 | 0.00 | 0.00 | 75 | 1011.3 |
| 20260505111544 | 13 | 172 | 3.2 | 4.8 | 0.00 | 0.00 | 0.00 | 77 | 1011.0 |
| 20260505111040 | 13 | 180 | 3.2 | 3.2 | 0.00 | 0.00 | 0.00 | 78 | 1011.3 |
| 20260505110537 | 12 | 178 | 3.2 | 3.2 | 0.00 | 0.00 | 0.00 | 78 | 1011.0 |
| 20260505102009 | 12 | 165 | 0.0 | 3.2 | 0.00 | 0.00 | 0.00 | 82 | 1010.4 |
| 20260505101508 | 11 | 145 | 1.6 | 3.2 | 0.00 | 0.00 | 0.00 | 84 | 1010.5 |
| 20260505101004 | 11 | 158 | 3.2 | 3.2 | 0.00 | 0.00 | 0.00 | 87 | 1010.5 |
| 20260505100501 | 11 | 66 | 0.0 | 3.2 | 0.00 | 0.00 | 0.00 | 87 | 1010.4 |
| 20260505095957 | 10 | 33 | 0.0 | 3.2 | 0.00 | 0.00 | 0.00 | 88 | 1010.4 |
| 20260505095454 | 10 | 38 | 1.6 | 4.8 | 0.00 | 0.00 | 0.00 | 88 | 1010.5 |
| 20260505094950 | 10 | 56 | 3.2 | 4.8 | 0.00 | 0.00 | 0.00 | 87 | 1010.3 |
| 20260505094447 | 10 | 33 | 1.6 | 3.2 | 0.00 | 0.00 | 0.00 | 87 | 1010.3 |
| 20260505093943 | 11 | 72 | 0.0 | 3.2 | 0.00 | 0.00 | 0.00 | 85 | 1010.2 |
| 20260505093440 | 11 | 91 | 3.2 | 3.2 | 0.00 | 0.00 | 0.00 | 84 | 1010.2 |
| 20260505092937 | 11 | 97 | 3.2 | 4.8 | 0.00 | 0.00 | 0.00 | 83 | 1010.2 |
| 20260505092434 | 11 | 132 | 1.6 | 3.2 | 0.00 | 0.00 | 0.00 | 84 | 1010.2 |
| 20260505091932 | 11 | 127 | 0.0 | 3.2 | 0.00 | 0.00 | 0.00 | 83 | 1010.2 |
| 20260505091430 | 11 | 133 | 3.2 | 3.2 | 0.00 | 0.00 | 0.00 | 83 | 1010.2 |
| 20260505090927 | 11 | 31 | 3.2 | 3.2 | 0.00 | 0.00 | 0.00 | 82 | 1010.3 |
| 20260505090425 | 11 | 49 | 3.2 | 3.2 | 0.00 | 0.00 | 0.00 | 82 | 1010.2 |
| 20260505085922 | 12 | 34 | 3.2 | 3.2 | 0.00 | 0.00 | 0.00 | 81 | 1010.1 |
| 20260505085420 | 12 | 72 | 1.6 | 3.2 | 0.00 | 0.00 | 0.00 | 79 | 1010.1 |
| 20260505084918 | 12 | 106 | 4.8 | 4.8 | 0.00 | 0.00 | 0.00 | 78 | 1010.1 |
| 20260505084416 | 12 | 163 | 3.2 | 6.4 | 0.00 | 0.00 | 0.00 | 77 | 1010.3 |
| 20260505083914 | 12 | 138 | 3.2 | 4.8 | 0.00 | 0.00 | 0.00 | 78 | 1010.1 |
| 20260505083411 | 12 | 132 | 3.2 | 4.8 | 0.00 | 0.00 | 0.00 | 78 | 1009.9 |
| 20260505082907 | 12 | 140 | 3.2 | 4.8 | 0.00 | 0.00 | 0.00 | 78 | 1010.0 |
| 20260505082403 | 12 | 144 | 3.2 | 4.8 | 0.00 | 0.00 | 0.00 | 78 | 1010.0 |
| 20260505081900 | 12 | 156 | 3.2 | 4.8 | 0.00 | 0.00 | 0.00 | 78 | 1010.0 |
| 20260505081357 | 12 | 123 | 3.2 | 3.2 | 0.00 | 0.00 | 0.00 | 78 | 1009.8 |
| 20260505080853 | 12 | 132 | 3.2 | 3.2 | 0.00 | 0.00 | 0.00 | 77 | 1010.2 |
| 20260505080349 | 13 | 121 | 0.0 | 3.2 | 0.00 | 0.00 | 0.00 | 77 | 1010.1 |
| 20260505075845 | 13 | 145 | 0.0 | 3.2 | 0.00 | 0.00 | 0.00 | 75 | 1009.9 |
| 20260505075342 | 13 | 157 | 1.6 | 3.2 | 0.00 | 0.00 | 0.00 | 74 | 1009.8 |
| 20260505074839 | 13 | 215 | 0.0 | 3.2 | 0.00 | 0.00 | 0.00 | 74 | 1009.9 |
| 20260505074336 | 13 | 219 | 3.2 | 4.8 | 0.00 | 0.00 | 0.00 | 74 | 1009.9 |
| 20260505073834 | 13 | 197 | 1.6 | 4.8 | 0.00 | 0.00 | 0.00 | 74 | 1009.7 |
| 20260505073332 | 13 | 206 | 4.8 | 6.4 | 0.00 | 0.00 | 0.00 | 74 | 1009.7 |
| 20260505072828 | 14 | 233 | 6.4 | 8.0 | 0.00 | 0.00 | 0.00 | 73 | 1009.8 |
| 20260505072324 | 13 | 211 | 3.2 | 4.8 | 0.00 | 0.00 | 0.00 | 73 | 1009.9 |
| 20260505071820 | 13 | 202 | 0.0 | 3.2 | 0.00 | 0.00 | 0.00 | 74 | 1010.0 |
| 20260505071317 | 13 | 164 | 1.6 | 3.2 | 0.00 | 0.00 | 0.00 | 74 | 1009.7 |
| 20260505070815 | 13 | 192 | 3.2 | 3.2 | 0.00 | 0.00 | 0.00 | 74 | 1009.9 |
| 20260505070311 | 13 | 169 | 3.2 | 3.2 | 0.00 | 0.00 | 0.00 | 74 | 1009.9 |
| 20260505065807 | 13 | 222 | 1.6 | 4.8 | 0.00 | 0.00 | 0.00 | 74 | 1009.8 |
| 20260505065304 | 13 | 150 | 0.0 | 1.6 | 0.00 | 0.00 | 0.00 | 74 | 1009.8 |
| 20260505064801 | 13 | 139 | 0.0 | 3.2 | 0.00 | 0.00 | 0.00 | 73 | 1009.7 |
| 20260505064258 | 13 | 158 | 0.0 | 1.6 | 0.00 | 0.00 | 0.00 | 73 | 1009.9 |
| 20260505063756 | 14 | 189 | 0.0 | 3.2 | 0.00 | 0.00 | 0.00 | 73 | 1009.8 |
| 20260505063252 | 14 | 179 | 3.2 | 3.2 | 0.00 | 0.00 | 0.00 | 73 | 1010.1 |
| 20260505062749 | 14 | 232 | 1.6 | 3.2 | 0.00 | 0.00 | 0.00 | 73 | 1010.0 |
| 20260505062246 | 13 | 192 | 3.2 | 3.2 | 0.00 | 0.00 | 0.00 | 73 | 1009.8 |
| 20260505061743 | 13 | 184 | 3.2 | 3.2 | 0.00 | 0.00 | 0.00 | 73 | 1009.9 |
| 20260505061241 | 13 | 183 | 1.6 | 3.2 | 0.00 | 0.00 | 0.00 | 73 | 1009.8 |
| 20260505060738 | 13 | 169 | 3.2 | 3.2 | 0.00 | 0.00 | 0.00 | 73 | 1009.7 |
| 20260505060235 | 13 | 191 | 3.2 | 3.2 | 0.00 | 0.00 | 0.00 | 73 | 1009.8 |
| 20260505055730 | 13 | 151 | 3.2 | 3.2 | 0.00 | 0.00 | 0.00 | 73 | 1009.9 |
| 20260505055227 | 13 | 174 | 1.6 | 3.2 | 0.00 | 0.00 | 0.00 | 72 | 1009.8 |
| 20260505054724 | 14 | 184 | 0.0 | 1.6 | 0.00 | 0.00 | 0.00 | 72 | 1010.0 |
| 20260505054222 | 14 | 180 | 0.0 | 3.2 | 0.00 | 0.00 | 0.00 | 71 | 1009.6 |
| 20260505053720 | 14 | 179 | 3.2 | 3.2 | 0.00 | 0.00 | 0.00 | 71 | 1010.2 |
| 20260505053216 | 14 | 184 | 3.2 | 4.8 | 0.00 | 0.00 | 0.00 | 70 | 1010.0 |
| 20260505052714 | 14 | 198 | 3.2 | 4.8 | 0.00 | 0.00 | 0.00 | 70 | 1009.8 |
| 20260505052210 | 15 | 198 | 3.2 | 4.8 | 0.00 | 0.00 | 0.00 | 70 | 1009.9 |
| 20260505051707 | 15 | 189 | 3.2 | 4.8 | 0.00 | 0.00 | 0.00 | 69 | 1009.8 |
| 20260505051205 | 15 | 195 | 3.2 | 3.2 | 0.00 | 0.00 | 0.00 | 69 | 1009.7 |
| 20260505050703 | 15 | 180 | 3.2 | 4.8 | 0.00 | 0.00 | 0.00 | 68 | 1009.8 |
| 20260505050201 | 15 | 187 | 3.2 | 4.8 | 0.00 | 0.00 | 0.00 | 67 | 1009.7 |
| 20260505041636 | 16 | 216 | 11.3 | 12.9 | 0.00 | 0.00 | 0.00 | 62 | 1010.0 |
| 20260505041134 | 17 | 211 | 9.7 | 17.7 | 0.00 | 0.00 | 0.00 | 61 | 1010.0 |
| 20260505040631 | 17 | 216 | 9.7 | 17.7 | 0.00 | 0.00 | 0.00 | 61 | 1010.0 |
| 20260505040128 | 16 | 209 | 9.7 | 14.5 | 0.00 | 0.00 | 0.00 | 61 | 1009.9 |
| 20260505035624 | 16 | 206 | 11.3 | 16.1 | 0.00 | 0.00 | 0.00 | 61 | 1009.9 |
| 20260505035120 | 17 | 215 | 8.0 | 16.1 | 0.00 | 0.00 | 0.00 | 61 | 1009.6 |
| 20260505034617 | 17 | 215 | 8.0 | 11.3 | 0.00 | 0.00 | 0.00 | 61 | 1010.0 |
| 20260505034114 | 17 | 199 | 8.0 | 16.1 | 0.00 | 0.00 | 0.00 | 60 | 1010.0 |
| 20260505033610 | 17 | 217 | 6.4 | 11.3 | 0.00 | 0.00 | 0.00 | 60 | 1009.9 |
| 20260505033110 | 17 | 207 | 11.3 | 14.5 | 0.00 | 0.00 | 0.00 | 60 | 1009.9 |
| 20260505032607 | 17 | 211 | 6.4 | 8.0 | 0.00 | 0.00 | 0.00 | 60 | 1009.8 |
| 20260505032103 | 17 | 209 | 8.0 | 14.5 | 0.00 | 0.00 | 0.00 | 60 | 1009.8 |
| 20260505031601 | 17 | 209 | 8.0 | 9.7 | 0.00 | 0.00 | 0.00 | 59 | 1009.7 |
| 20260505031056 | 17 | 212 | 6.4 | 12.9 | 0.00 | 0.00 | 0.00 | 58 | 1009.8 |
| 20260505030554 | 17 | 200 | 6.4 | 12.9 | 0.00 | 0.00 | 0.00 | 57 | 1010.0 |
| 20260505030049 | 17 | 215 | 8.0 | 11.3 | 0.00 | 0.00 | 0.00 | 58 | 1010.1 |
| 20260505025545 | 17 | 220 | 8.0 | 12.9 | 0.00 | 0.00 | 0.00 | 58 | 1010.0 |
| 20260505025045 | 17 | 213 | 6.4 | 9.7 | 0.00 | 0.00 | 0.00 | 58 | 1010.3 |
| 20260505024541 | 17 | 212 | 4.8 | 9.7 | 0.00 | 0.00 | 0.00 | 58 | 1010.1 |
| 20260505024038 | 17 | 204 | 4.8 | 6.4 | 0.00 | 0.00 | 0.00 | 58 | 1010.2 |
| 20260505023535 | 17 | 215 | 3.2 | 6.4 | 0.00 | 0.00 | 0.00 | 58 | 1009.9 |
| 20260505023033 | 17 | 206 | 4.8 | 9.7 | 0.00 | 0.00 | 0.00 | 57 | 1009.8 |
| 20260505022530 | 17 | 203 | 6.4 | 8.0 | 0.00 | 0.00 | 0.00 | 57 | 1010.0 |
| 20260505022027 | 18 | 207 | 4.8 | 6.4 | 0.00 | 0.00 | 0.00 | 56 | 1009.8 |
| 20260505021524 | 18 | 196 | 6.4 | 9.7 | 0.00 | 0.00 | 0.00 | 55 | 1009.9 |
| 20260505021021 | 18 | 219 | 9.7 | 9.7 | 0.00 | 0.00 | 0.00 | 54 | 1009.9 |
| 20260505020520 | 18 | 210 | 6.4 | 14.5 | 0.00 | 0.00 | 0.00 | 54 | 1010.0 |
| 20260505020018 | 18 | 211 | 3.2 | 9.7 | 0.00 | 0.00 | 0.00 | 53 | 1009.9 |
| 20260505015515 | 18 | 203 | 3.2 | 8.0 | 0.00 | 0.00 | 0.00 | 52 | 1009.9 |
| 20260505015012 | 19 | 207 | 6.4 | 12.9 | 0.00 | 0.00 | 0.00 | 51 | 1009.9 |
| 20260505014509 | 19 | 215 | 12.9 | 12.9 | 0.00 | 0.00 | 0.00 | 51 | 1009.7 |
| 20260505014006 | 20 | 205 | 11.3 | 19.3 | 0.00 | 0.00 | 0.00 | 50 | 1009.4 |
| 20260505013503 | 20 | 213 | 17.7 | 19.3 | 0.00 | 0.00 | 0.00 | 49 | 1009.6 |
| 20260505013000 | 20 | 210 | 14.5 | 14.5 | 0.00 | 0.00 | 0.00 | 49 | 1009.4 |
| 20260505012458 | 20 | 205 | 6.4 | 24.1 | 0.00 | 0.00 | 0.00 | 49 | 1009.5 |
| 20260505011955 | 20 | 215 | 9.7 | 16.1 | 0.00 | 0.00 | 0.00 | 49 | 1009.4 |
| 20260505011450 | 20 | 208 | 6.4 | 14.5 | 0.00 | 0.00 | 0.00 | 48 | 1009.5 |
| 20260505010947 | 20 | 217 | 11.3 | 16.1 | 0.00 | 0.00 | 0.00 | 48 | 1009.3 |
| 20260505010443 | 20 | 213 | 8.0 | 20.9 | 0.00 | 0.00 | 0.00 | 47 | 1009.1 |
| 20260505005939 | 20 | 217 | 11.3 | 27.4 | 0.00 | 0.00 | 0.00 | 47 | 1009.0 |
| 20260505005436 | 20 | 207 | 14.5 | 22.5 | 0.00 | 0.00 | 0.00 | 46 | 1009.1 |
| 20260505004934 | 21 | 214 | 14.5 | 20.9 | 0.00 | 0.00 | 0.00 | 45 | 1008.9 |